Time,TemperatureF,DewpointF,PressureIn,WindDirection,WindDirectionDegrees,WindSpeedMPH,WindSpeedGustMPH,Humidity,HourlyPrecipIn,Conditions,Clouds,dailyrainin,SoftwareType,DateUTC
2013-07-04 00:03:00,99.9,54.3,29.58,West,271,2.0,2.0,22,0.00,,,0.00,Wunderground v.1.15,2013-07-04 07:03:00,
2013-07-04 00:08:00,99.9,54.3,29.58,NNW,331,1.0,2.0,22,0.00,,,0.00,Wunderground v.1.15,2013-07-04 07:08:00,
2013-07-04 00:13:00,99.8,54.2,29.58,ESE,105,1.0,2.0,22,0.00,,,0.00,Wunderground v.1.15,2013-07-04 07:13:00,
2013-07-04 00:18:00,99.6,54.0,29.58,SE,136,2.0,4.0,22,0.00,,,0.00,Wunderground v.1.15,2013-07-04 07:18:00,
2013-07-04 00:23:00,99.4,53.8,29.58,WSW,246,2.0,4.0,22,0.00,,,0.00,Wunderground v.1.15,2013-07-04 07:23:00,
2013-07-04 00:28:00,99.1,53.6,29.58,NNW,342,0.0,4.0,22,0.00,,,0.00,Wunderground v.1.15,2013-07-04 07:28:00,
2013-07-04 00:33:00,98.7,53.3,29.58,WSW,252,1.0,3.0,22,0.00,,,0.00,Wunderground v.1.15,2013-07-04 07:33:00,
2013-07-04 00:38:00,98.4,53.0,29.58,NW,305,1.0,3.0,22,0.00,,,0.00,Wunderground v.1.15,2013-07-04 07:38:00,
2013-07-04 00:43:00,98.2,54.1,29.58,North,349,0.0,1.0,23,0.00,,,0.00,Wunderground v.1.15,2013-07-04 07:43:00,
2013-07-04 00:49:00,97.8,52.5,29.57,NNW,329,0.0,1.0,22,0.00,,,0.00,Wunderground v.1.15,2013-07-04 07:49:00,
2013-07-04 00:54:00,97.5,53.5,29.57,NW,319,0.0,1.0,23,0.00,,,0.00,Wunderground v.1.15,2013-07-04 07:54:00,
2013-07-04 00:59:00,97.2,54.4,29.57,NNW,338,0.0,3.0,24,0.00,,,0.00,Wunderground v.1.15,2013-07-04 07:59:00,
2013-07-04 01:04:00,96.9,55.3,29.57,WNW,298,1.0,2.0,25,0.00,,,0.00,Wunderground v.1.15,2013-07-04 08:04:00,
2013-07-04 01:09:00,96.7,55.1,29.57,WNW,303,0.0,2.0,25,0.00,,,0.00,Wunderground v.1.15,2013-07-04 08:09:00,
2013-07-04 01:15:00,96.2,55.8,29.58,NW,312,0.0,1.0,26,0.00,,,0.00,Wunderground v.1.15,2013-07-04 08:15:00,
2013-07-04 01:20:00,96.0,54.5,29.58,NE,45,0.0,0.0,25,0.00,,,0.00,Wunderground v.1.15,2013-07-04 08:20:00,
2013-07-04 01:25:00,95.8,55.4,29.58,NNE,12,0.0,0.0,26,0.00,,,0.00,Wunderground v.1.15,2013-07-04 08:25:00,
2013-07-04 01:30:00,95.6,55.2,29.58,NNW,346,0.0,0.0,26,0.00,,,0.00,Wunderground v.1.15,2013-07-04 08:30:00,
2013-07-04 01:35:00,95.3,55.0,29.58,NNW,328,0.0,0.0,26,0.00,,,0.00,Wunderground v.1.15,2013-07-04 08:35:00,
2013-07-04 01:41:00,95.2,54.9,29.58,NNE,21,1.0,1.0,26,0.00,,,0.00,Wunderground v.1.15,2013-07-04 08:41:00,
2013-07-04 01:46:00,95.2,53.8,29.57,NE,40,0.0,2.0,25,0.00,,,0.00,Wunderground v.1.15,2013-07-04 08:46:00,
2013-07-04 01:51:00,95.0,54.7,29.57,NW,316,0.0,0.0,26,0.00,,,0.00,Wunderground v.1.15,2013-07-04 08:51:00,
2013-07-04 01:56:00,94.7,54.5,29.57,North,5,0.0,0.0,26,0.00,,,0.00,Wunderground v.1.15,2013-07-04 08:56:00,
2013-07-04 02:01:00,94.5,54.3,29.57,North,350,0.0,0.0,26,0.00,,,0.00,Wunderground v.1.15,2013-07-04 09:01:00,
2013-07-04 02:06:00,94.4,54.2,29.57,West,274,0.0,1.0,26,0.00,,,0.00,Wunderground v.1.15,2013-07-04 09:06:00,
2013-07-04 02:11:00,94.2,54.1,29.57,WNW,297,0.0,1.0,26,0.00,,,0.00,Wunderground v.1.15,2013-07-04 09:11:00,
2013-07-04 02:16:00,94.0,53.9,29.57,North,8,0.0,1.0,26,0.00,,,0.00,Wunderground v.1.15,2013-07-04 09:16:00,
2013-07-04 02:21:00,93.7,53.6,29.57,SSW,207,0.0,0.0,26,0.00,,,0.00,Wunderground v.1.15,2013-07-04 09:21:00,
2013-07-04 02:26:00,93.4,54.4,29.58,SSW,210,0.0,0.0,27,0.00,,,0.00,Wunderground v.1.15,2013-07-04 09:26:00,
2013-07-04 02:31:00,93.1,54.2,29.57,SE,127,0.0,1.0,27,0.00,,,0.00,Wunderground v.1.15,2013-07-04 09:31:00,
2013-07-04 02:36:00,92.9,54.0,29.57,WNW,295,0.0,1.0,27,0.00,,,0.00,Wunderground v.1.15,2013-07-04 09:36:00,
2013-07-04 02:41:00,92.7,53.8,29.57,WNW,295,0.0,0.0,27,0.00,,,0.00,Wunderground v.1.15,2013-07-04 09:41:00,
2013-07-04 02:46:00,92.5,53.7,29.57,NW,305,0.0,1.0,27,0.00,,,0.00,Wunderground v.1.15,2013-07-04 09:46:00,
2013-07-04 02:51:00,92.5,53.7,29.57,NE,49,0.0,1.0,27,0.00,,,0.00,Wunderground v.1.15,2013-07-04 09:51:00,
2013-07-04 02:56:00,92.4,53.6,29.57,NNW,333,0.0,1.0,27,0.00,,,0.00,Wunderground v.1.15,2013-07-04 09:56:00,
2013-07-04 03:01:00,92.4,53.6,29.57,WNW,302,0.0,0.0,27,0.00,,,0.00,Wunderground v.1.15,2013-07-04 10:01:00,
2013-07-04 03:06:00,92.4,53.6,29.57,NW,319,0.0,1.0,27,0.00,,,0.00,Wunderground v.1.15,2013-07-04 10:06:00,
2013-07-04 03:11:00,92.4,53.6,29.57,SSE,164,0.0,0.0,27,0.00,,,0.00,Wunderground v.1.15,2013-07-04 10:11:00,
2013-07-04 03:16:00,92.2,54.4,29.57,North,11,0.0,1.0,28,0.00,,,0.00,Wunderground v.1.15,2013-07-04 10:16:00,
2013-07-04 03:21:00,92.1,53.3,29.57,WNW,301,0.0,0.0,27,0.00,,,0.00,Wunderground v.1.15,2013-07-04 10:21:00,
2013-07-04 03:26:00,92.0,54.2,29.57,NW,319,0.0,3.0,28,0.00,,,0.00,Wunderground v.1.15,2013-07-04 10:26:00,
2013-07-04 03:31:00,92.1,53.3,29.57,WSW,248,0.0,1.0,27,0.00,,,0.00,Wunderground v.1.15,2013-07-04 10:31:00,
2013-07-04 03:37:00,92.2,54.4,29.57,NW,306,0.0,1.0,28,0.00,,,0.00,Wunderground v.1.15,2013-07-04 10:37:00,
2013-07-04 03:42:00,92.2,53.4,29.57,SE,141,0.0,1.0,27,0.00,,,0.00,Wunderground v.1.15,2013-07-04 10:42:00,
2013-07-04 03:47:00,92.1,53.3,29.57,NW,315,0.0,1.0,27,0.00,,,0.00,Wunderground v.1.15,2013-07-04 10:47:00,
2013-07-04 03:52:00,91.8,53.1,29.57,SE,131,0.0,1.0,27,0.00,,,0.00,Wunderground v.1.15,2013-07-04 10:52:00,
2013-07-04 03:57:00,91.7,54.0,29.58,North,360,0.0,1.0,28,0.00,,,0.00,Wunderground v.1.15,2013-07-04 10:57:00,
2013-07-04 04:02:00,91.5,53.8,29.57,NNW,335,0.0,1.0,28,0.00,,,0.00,Wunderground v.1.15,2013-07-04 11:02:00,
2013-07-04 04:07:00,91.3,53.6,29.57,NW,316,0.0,1.0,28,0.00,,,0.00,Wunderground v.1.15,2013-07-04 11:07:00,
2013-07-04 04:12:00,91.4,53.7,29.58,NW,307,0.0,1.0,28,0.00,,,0.00,Wunderground v.1.15,2013-07-04 11:12:00,
2013-07-04 04:17:00,91.6,53.9,29.57,NE,42,0.0,2.0,28,0.00,,,0.00,Wunderground v.1.15,2013-07-04 11:17:00,
2013-07-04 04:22:00,91.5,53.8,29.57,NNE,22,0.0,1.0,28,0.00,,,0.00,Wunderground v.1.15,2013-07-04 11:22:00,
2013-07-04 04:27:00,91.5,53.8,29.57,NNE,25,0.0,2.0,28,0.00,,,0.00,Wunderground v.1.15,2013-07-04 11:27:00,
2013-07-04 04:32:00,91.5,53.8,29.58,ENE,78,1.0,1.0,28,0.00,,,0.00,Wunderground v.1.15,2013-07-04 11:32:00,
2013-07-04 04:37:00,91.4,53.7,29.58,SSE,162,0.0,1.0,28,0.00,,,0.00,Wunderground v.1.15,2013-07-04 11:37:00,
2013-07-04 04:42:00,91.3,54.6,29.58,NNW,344,0.0,1.0,29,0.00,,,0.00,Wunderground v.1.15,2013-07-04 11:42:00,
2013-07-04 04:47:00,91.3,53.6,29.58,WNW,301,1.0,2.0,28,0.00,,,0.00,Wunderground v.1.15,2013-07-04 11:47:00,
2013-07-04 04:52:00,91.3,54.6,29.58,East,92,1.0,2.0,29,0.00,,,0.00,Wunderground v.1.15,2013-07-04 11:52:00,
2013-07-04 04:57:00,91.3,53.6,29.58,ENE,63,1.0,2.0,28,0.00,,,0.00,Wunderground v.1.15,2013-07-04 11:57:00,
2013-07-04 05:02:00,91.4,53.7,29.58,ESE,115,1.0,2.0,28,0.00,,,0.00,Wunderground v.1.15,2013-07-04 12:02:00,
2013-07-04 05:07:00,91.5,53.8,29.59,East,96,3.0,3.0,28,0.00,,,0.00,Wunderground v.1.15,2013-07-04 12:07:00,
2013-07-04 05:13:00,91.3,53.6,29.59,East,79,0.0,2.0,28,0.00,,,0.00,Wunderground v.1.15,2013-07-04 12:13:00,
2013-07-04 05:18:00,91.2,53.5,29.59,East,99,2.0,6.0,28,0.00,,,0.00,Wunderground v.1.15,2013-07-04 12:18:00,
2013-07-04 05:23:00,91.5,53.8,29.59,ESE,121,3.0,6.0,28,0.00,,,0.00,Wunderground v.1.15,2013-07-04 12:23:00,
2013-07-04 05:28:00,91.6,52.9,29.59,SE,133,2.0,6.0,27,0.00,,,0.00,Wunderground v.1.15,2013-07-04 12:28:00,
2013-07-04 05:33:00,91.6,52.9,29.59,East,92,2.0,5.0,27,0.00,,,0.00,Wunderground v.1.15,2013-07-04 12:33:00,
2013-07-04 05:38:00,91.5,52.8,29.59,ESE,113,4.0,5.0,27,0.00,,,0.00,Wunderground v.1.15,2013-07-04 12:38:00,
2013-07-04 05:43:00,91.5,52.8,29.60,East,86,2.0,4.0,27,0.00,,,0.00,Wunderground v.1.15,2013-07-04 12:43:00,
2013-07-04 05:48:00,91.4,52.7,29.60,East,99,1.0,4.0,27,0.00,,,0.00,Wunderground v.1.15,2013-07-04 12:48:00,
2013-07-04 05:53:00,91.5,52.8,29.60,ESE,117,2.0,4.0,27,0.00,,,0.00,Wunderground v.1.15,2013-07-04 12:53:00,
2013-07-04 05:58:00,91.7,53.0,29.60,ESE,115,2.0,6.0,27,0.00,,,0.00,Wunderground v.1.15,2013-07-04 12:58:00,
2013-07-04 06:03:00,91.8,53.1,29.60,ENE,70,1.0,3.0,27,0.00,,,0.00,Wunderground v.1.15,2013-07-04 13:03:00,
2013-07-04 06:08:00,91.9,52.1,29.61,NNE,27,0.0,4.0,26,0.00,,,0.00,Wunderground v.1.15,2013-07-04 13:08:00,
2013-07-04 06:13:00,92.2,52.4,29.61,NW,307,2.0,4.0,26,0.00,,,0.00,Wunderground v.1.15,2013-07-04 13:13:00,
2013-07-04 06:18:00,92.6,52.7,29.61,East,83,2.0,4.0,26,0.00,,,0.00,Wunderground v.1.15,2013-07-04 13:18:00,
2013-07-04 06:23:00,93.0,53.0,29.61,East,82,2.0,4.0,26,0.00,,,0.00,Wunderground v.1.15,2013-07-04 13:23:00,
2013-07-04 06:28:00,93.4,53.4,29.62,East,89,1.0,4.0,26,0.00,,,0.00,Wunderground v.1.15,2013-07-04 13:28:00,
2013-07-04 06:33:00,93.7,53.6,29.62,WNW,303,1.0,5.0,26,0.00,,,0.00,Wunderground v.1.15,2013-07-04 13:33:00,
2013-07-04 06:38:00,93.9,53.8,29.62,NNE,28,2.0,5.0,26,0.00,,,0.00,Wunderground v.1.15,2013-07-04 13:38:00,
2013-07-04 06:43:00,94.1,54.0,29.62,NW,309,0.0,3.0,26,0.00,,,0.00,Wunderground v.1.15,2013-07-04 13:43:00,
2013-07-04 06:48:00,94.2,53.0,29.63,WSW,242,2.0,5.0,25,0.00,,,0.00,Wunderground v.1.15,2013-07-04 13:48:00,
2013-07-04 06:53:00,94.3,54.1,29.63,NE,39,2.0,7.0,26,0.00,,,0.00,Wunderground v.1.15,2013-07-04 13:53:00,
2013-07-04 06:58:00,94.3,54.1,29.63,NW,309,1.0,7.0,26,0.00,,,0.00,Wunderground v.1.15,2013-07-04 13:58:00,
2013-07-04 07:03:00,94.2,54.1,29.63,SW,228,2.0,5.0,26,0.00,,,0.00,Wunderground v.1.15,2013-07-04 14:03:00,
2013-07-04 07:08:00,94.1,55.0,29.63,ESE,111,2.0,8.0,27,0.00,,,0.00,Wunderground v.1.15,2013-07-04 14:08:00,
2013-07-04 07:13:00,94.2,54.1,29.64,ESE,105,4.0,5.0,26,0.00,,,0.00,Wunderground v.1.15,2013-07-04 14:13:00,
2013-07-04 07:18:00,94.2,55.1,29.64,NNE,16,1.0,5.0,27,0.00,,,0.00,Wunderground v.1.15,2013-07-04 14:18:00,
2013-07-04 07:23:00,94.2,55.1,29.64,East,84,4.0,6.0,27,0.00,,,0.00,Wunderground v.1.15,2013-07-04 14:23:00,
2013-07-04 07:28:00,94.4,56.3,29.65,North,355,1.0,6.0,28,0.00,,,0.00,Wunderground v.1.15,2013-07-04 14:28:00,
2013-07-04 07:33:00,94.6,56.4,29.65,South,187,3.0,6.0,28,0.00,,,0.00,Wunderground v.1.15,2013-07-04 14:33:00,
2013-07-04 07:38:00,94.8,57.6,29.65,NW,322,2.0,6.0,29,0.00,,,0.00,Wunderground v.1.15,2013-07-04 14:38:00,
2013-07-04 07:43:00,95.1,57.8,29.65,WNW,299,1.0,5.0,29,0.00,,,0.00,Wunderground v.1.15,2013-07-04 14:43:00,
2013-07-04 07:49:00,95.5,57.2,29.66,East,92,2.0,7.0,28,0.00,,,0.00,Wunderground v.1.15,2013-07-04 14:49:00,
2013-07-04 07:54:00,95.7,57.4,29.66,WNW,287,2.0,4.0,28,0.00,,,0.00,Wunderground v.1.15,2013-07-04 14:54:00,
2013-07-04 07:59:00,96.1,56.7,29.66,North,349,2.0,5.0,27,0.00,,,0.00,Wunderground v.1.15,2013-07-04 14:59:00,
2013-07-04 08:04:00,96.4,58.0,29.66,NNW,335,1.0,4.0,28,0.00,,,0.00,Wunderground v.1.15,2013-07-04 15:04:00,
2013-07-04 08:09:00,96.9,58.4,29.66,SE,131,4.0,7.0,28,0.00,,,0.00,Wunderground v.1.15,2013-07-04 15:09:00,
2013-07-04 08:14:00,97.2,57.6,29.66,West,274,0.0,6.0,27,0.00,,,0.00,Wunderground v.1.15,2013-07-04 15:14:00,
2013-07-04 08:19:00,97.8,57.1,29.67,NW,316,3.0,6.0,26,0.00,,,0.00,Wunderground v.1.15,2013-07-04 15:19:00,
2013-07-04 08:24:00,98.5,58.8,29.67,ESE,110,4.0,4.0,27,0.00,,,0.00,Wunderground v.1.15,2013-07-04 15:24:00,
2013-07-04 08:29:00,98.3,58.6,29.67,East,84,4.0,5.0,27,0.00,,,0.00,Wunderground v.1.15,2013-07-04 15:29:00,
2013-07-04 08:34:00,98.1,59.4,29.67,WNW,303,2.0,9.0,28,0.00,,,0.00,Wunderground v.1.15,2013-07-04 15:34:00,
2013-07-04 08:39:00,98.3,60.6,29.67,ESE,118,6.0,9.0,29,0.00,,,0.00,Wunderground v.1.15,2013-07-04 15:39:00,
2013-07-04 08:44:00,98.6,60.8,29.67,NNW,346,4.0,10.0,29,0.00,,,0.00,Wunderground v.1.15,2013-07-04 15:44:00,
2013-07-04 08:49:00,98.6,61.8,29.67,West,279,6.0,11.0,30,0.00,,,0.00,Wunderground v.1.15,2013-07-04 15:49:00,
2013-07-04 08:54:00,98.6,61.8,29.67,SW,231,5.0,10.0,30,0.00,,,0.00,Wunderground v.1.15,2013-07-04 15:54:00,
2013-07-04 08:59:00,98.6,61.8,29.67,North,3,8.0,13.0,30,0.00,,,0.00,Wunderground v.1.15,2013-07-04 15:59:00,
2013-07-04 09:04:00,98.5,61.7,29.68,North,8,7.0,13.0,30,0.00,,,0.00,Wunderground v.1.15,2013-07-04 16:04:00,
2013-07-04 09:09:00,98.5,62.6,29.67,NW,310,6.0,13.0,31,0.00,,,0.00,Wunderground v.1.15,2013-07-04 16:09:00,
2013-07-04 09:14:00,98.7,62.8,29.68,North,357,4.0,14.0,31,0.00,,,0.00,Wunderground v.1.15,2013-07-04 16:14:00,
2013-07-04 09:19:00,98.7,62.8,29.68,NE,55,2.0,14.0,31,0.00,,,0.00,Wunderground v.1.15,2013-07-04 16:19:00,
2013-07-04 09:24:00,98.9,63.0,29.68,NE,51,2.0,13.0,31,0.00,,,0.00,Wunderground v.1.15,2013-07-04 16:24:00,
2013-07-04 09:29:00,99.0,63.1,29.68,WNW,288,5.0,13.0,31,0.00,,,0.00,Wunderground v.1.15,2013-07-04 16:29:00,
2013-07-04 09:34:00,99.2,63.3,29.68,WNW,293,2.0,12.0,31,0.00,,,0.00,Wunderground v.1.15,2013-07-04 16:34:00,
2013-07-04 09:39:00,99.3,63.3,29.68,SW,235,10.0,12.0,31,0.00,,,0.00,Wunderground v.1.15,2013-07-04 16:39:00,
2013-07-04 09:44:00,99.6,63.6,29.69,NNW,331,7.0,10.0,31,0.00,,,0.00,Wunderground v.1.15,2013-07-04 16:44:00,
2013-07-04 09:49:00,99.5,63.5,29.68,ESE,102,6.0,10.0,31,0.00,,,0.00,Wunderground v.1.15,2013-07-04 16:49:00,
2013-07-04 09:55:00,99.8,63.8,29.68,West,271,1.0,7.0,31,0.00,,,0.00,Wunderground v.1.15,2013-07-04 16:55:00,
2013-07-04 10:00:00,100.1,64.0,29.68,SE,134,3.0,4.0,31,0.00,,,0.00,Wunderground v.1.15,2013-07-04 17:00:00,
2013-07-04 10:05:00,100.3,65.1,29.68,NW,316,2.0,5.0,32,0.00,,,0.00,Wunderground v.1.15,2013-07-04 17:05:00,
2013-07-04 10:10:00,100.9,64.7,29.68,SE,139,2.0,3.0,31,0.00,,,0.00,Wunderground v.1.15,2013-07-04 17:10:00,
2013-07-04 10:15:00,101.1,63.9,29.68,ESE,121,2.0,6.0,30,0.00,,,0.00,Wunderground v.1.15,2013-07-04 17:15:00,
2013-07-04 10:20:00,101.4,64.2,29.68,East,82,2.0,4.0,30,0.00,,,0.00,Wunderground v.1.15,2013-07-04 17:20:00,
2013-07-04 10:25:00,101.5,63.3,29.68,NE,46,2.0,8.0,29,0.00,,,0.00,Wunderground v.1.15,2013-07-04 17:25:00,
2013-07-04 10:30:00,101.8,62.6,29.68,WNW,290,2.0,3.0,28,0.00,,,0.00,Wunderground v.1.15,2013-07-04 17:30:00,
2013-07-04 10:35:00,102.0,62.8,29.68,NNW,345,2.0,10.0,28,0.00,,,0.00,Wunderground v.1.15,2013-07-04 17:35:00,
2013-07-04 10:40:00,102.5,63.2,29.68,ESE,115,1.0,3.0,28,0.00,,,0.00,Wunderground v.1.15,2013-07-04 17:40:00,
2013-07-04 10:45:00,103.0,62.6,29.68,NNE,29,3.0,5.0,27,0.00,,,0.00,Wunderground v.1.15,2013-07-04 17:45:00,
2013-07-04 10:50:00,103.2,62.7,29.68,SE,127,2.0,8.0,27,0.00,,,0.00,Wunderground v.1.15,2013-07-04 17:50:00,
2013-07-04 10:55:00,103.3,62.8,29.68,South,172,4.0,8.0,27,0.00,,,0.00,Wunderground v.1.15,2013-07-04 17:55:00,
2013-07-04 11:00:00,103.7,63.2,29.68,WSW,252,5.0,5.0,27,0.00,,,0.00,Wunderground v.1.15,2013-07-04 18:00:00,
2013-07-04 11:05:00,103.7,63.2,29.68,NW,321,0.0,6.0,27,0.00,,,0.00,Wunderground v.1.15,2013-07-04 18:05:00,
2013-07-04 11:10:00,104.1,63.5,29.68,NNE,13,2.0,3.0,27,0.00,,,0.00,Wunderground v.1.15,2013-07-04 18:10:00,
2013-07-04 11:16:00,104.1,63.5,29.68,SE,128,2.0,8.0,27,0.00,,,0.00,Wunderground v.1.15,2013-07-04 18:16:00,
2013-07-04 11:21:00,103.4,64.9,29.68,NNE,26,2.0,4.0,29,0.00,,,0.00,Wunderground v.1.15,2013-07-04 18:21:00,
2013-07-04 11:26:00,104.1,63.5,29.68,South,173,0.0,4.0,27,0.00,,,0.00,Wunderground v.1.15,2013-07-04 18:26:00,
2013-07-04 11:31:00,104.3,64.7,29.68,NE,51,1.0,4.0,28,0.00,,,0.00,Wunderground v.1.15,2013-07-04 18:31:00,
2013-07-04 11:36:00,105.1,63.3,29.68,WNW,298,1.0,7.0,26,0.00,,,0.00,Wunderground v.1.15,2013-07-04 18:36:00,
2013-07-04 11:41:00,105.1,63.3,29.67,NE,46,3.0,5.0,26,0.00,,,0.00,Wunderground v.1.15,2013-07-04 18:41:00,
2013-07-04 11:46:00,105.2,63.4,29.67,ESE,104,2.0,5.0,26,0.00,,,0.00,Wunderground v.1.15,2013-07-04 18:46:00,
2013-07-04 11:51:00,105.5,63.6,29.67,NE,50,1.0,2.0,26,0.00,,,0.00,Wunderground v.1.15,2013-07-04 18:51:00,
2013-07-04 11:56:00,103.8,65.3,29.67,SW,228,12.0,15.0,29,0.00,,,0.00,Wunderground v.1.15,2013-07-04 18:56:00,
2013-07-04 12:01:00,102.7,65.3,29.67,SW,236,10.0,17.0,30,0.00,,,0.00,Wunderground v.1.15,2013-07-04 19:01:00,
2013-07-04 12:06:00,102.5,64.2,29.66,WSW,248,9.0,17.0,29,0.00,,,0.00,Wunderground v.1.15,2013-07-04 19:06:00,
2013-07-04 12:11:00,102.3,65.0,29.66,WSW,245,13.0,14.0,30,0.00,,,0.00,Wunderground v.1.15,2013-07-04 19:11:00,
2013-07-04 12:16:00,102.0,65.7,29.66,West,264,9.0,16.0,31,0.00,,,0.00,Wunderground v.1.15,2013-07-04 19:16:00,
2013-07-04 12:21:00,102.5,63.2,29.66,WSW,245,11.0,14.0,28,0.00,,,0.00,Wunderground v.1.15,2013-07-04 19:21:00,
2013-07-04 12:26:00,103.1,65.7,29.66,SW,232,13.0,14.0,30,0.00,,,0.00,Wunderground v.1.15,2013-07-04 19:26:00,
2013-07-04 12:31:00,102.7,65.3,29.66,West,271,7.0,13.0,30,0.00,,,0.00,Wunderground v.1.15,2013-07-04 19:31:00,
2013-07-04 12:36:00,102.2,63.9,29.65,West,261,10.0,15.0,29,0.00,,,0.00,Wunderground v.1.15,2013-07-04 19:36:00,
2013-07-04 12:41:00,102.9,64.5,29.65,WSW,242,8.0,15.0,29,0.00,,,0.00,Wunderground v.1.15,2013-07-04 19:41:00,
2013-07-04 12:46:00,103.3,63.9,29.65,WSW,248,8.0,15.0,28,0.00,,,0.00,Wunderground v.1.15,2013-07-04 19:46:00,
2013-07-04 12:51:00,102.9,66.4,29.65,WSW,252,9.0,15.0,31,0.00,,,0.00,Wunderground v.1.15,2013-07-04 19:51:00,
2013-07-04 12:56:00,103.3,65.8,29.65,West,263,10.0,18.0,30,0.00,,,0.00,Wunderground v.1.15,2013-07-04 19:56:00,
2013-07-04 13:01:00,103.3,63.9,29.65,WSW,247,8.0,11.0,28,0.00,,,0.00,Wunderground v.1.15,2013-07-04 20:01:00,
2013-07-04 13:06:00,103.1,65.7,29.64,WSW,257,10.0,16.0,30,0.00,,,0.00,Wunderground v.1.15,2013-07-04 20:06:00,
2013-07-04 13:11:00,103.3,63.9,29.64,West,264,13.0,16.0,28,0.00,,,0.00,Wunderground v.1.15,2013-07-04 20:11:00,
2013-07-04 13:16:00,103.1,63.7,29.64,West,266,5.0,20.0,28,0.00,,,0.00,Wunderground v.1.15,2013-07-04 20:16:00,
2013-07-04 13:21:00,103.2,63.8,29.64,West,260,14.0,16.0,28,0.00,,,0.00,Wunderground v.1.15,2013-07-04 20:21:00,
2013-07-04 13:26:00,103.6,65.1,29.64,WSW,257,9.0,17.0,29,0.00,,,0.00,Wunderground v.1.15,2013-07-04 20:26:00,
2013-07-04 13:31:00,104.2,62.5,29.64,West,271,8.0,17.0,26,0.00,,,0.00,Wunderground v.1.15,2013-07-04 20:31:00,
2013-07-04 13:36:00,104.6,62.8,29.63,West,271,8.0,17.0,26,0.00,,,0.00,Wunderground v.1.15,2013-07-04 20:36:00,
2013-07-04 13:41:00,104.7,61.8,29.63,SW,219,4.0,16.0,25,0.00,,,0.00,Wunderground v.1.15,2013-07-04 20:41:00,
2013-07-04 13:46:00,105.3,63.4,29.63,SW,236,11.0,16.0,26,0.00,,,0.00,Wunderground v.1.15,2013-07-04 20:46:00,
2013-07-04 13:51:00,105.4,62.4,29.63,WSW,245,10.0,13.0,25,0.00,,,0.00,Wunderground v.1.15,2013-07-04 20:51:00,
2013-07-04 13:56:00,105.0,64.3,29.62,West,266,6.0,14.0,27,0.00,,,0.00,Wunderground v.1.15,2013-07-04 20:56:00,
2013-07-04 14:01:00,105.1,63.3,29.62,SW,226,4.0,13.0,26,0.00,,,0.00,Wunderground v.1.15,2013-07-04 21:01:00,
2013-07-04 14:06:00,105.8,61.6,29.62,NW,308,10.0,16.0,24,0.00,,,0.00,Wunderground v.1.15,2013-07-04 21:06:00,
2013-07-04 14:11:00,105.5,63.6,29.62,West,270,13.0,13.0,26,0.00,,,0.00,Wunderground v.1.15,2013-07-04 21:11:00,
2013-07-04 14:16:00,105.4,63.5,29.61,WSW,250,14.0,15.0,26,0.00,,,0.00,Wunderground v.1.15,2013-07-04 21:16:00,
2013-07-04 14:21:00,105.9,61.7,29.61,West,274,14.0,15.0,24,0.00,,,0.00,Wunderground v.1.15,2013-07-04 21:21:00,
2013-07-04 14:26:00,105.3,61.2,29.61,SW,232,10.0,18.0,24,0.00,,,0.00,Wunderground v.1.15,2013-07-04 21:26:00,
2013-07-04 14:31:00,104.9,63.1,29.61,WSW,240,10.0,13.0,26,0.00,,,0.00,Wunderground v.1.15,2013-07-04 21:31:00,
2013-07-04 14:36:00,105.2,59.9,29.61,WSW,242,15.0,18.0,23,0.00,,,0.00,Wunderground v.1.15,2013-07-04 21:36:00,
2013-07-04 14:42:00,105.7,61.5,29.60,WSW,243,9.0,14.0,24,0.00,,,0.00,Wunderground v.1.15,2013-07-04 21:42:00,
2013-07-04 14:47:00,105.8,60.4,29.60,West,260,9.0,15.0,23,0.00,,,0.00,Wunderground v.1.15,2013-07-04 21:47:00,
2013-07-04 14:52:00,105.9,61.7,29.60,West,273,7.0,16.0,24,0.00,,,0.00,Wunderground v.1.15,2013-07-04 21:52:00,
2013-07-04 14:57:00,106.1,60.6,29.60,SW,219,7.0,16.0,23,0.00,,,0.00,Wunderground v.1.15,2013-07-04 21:57:00,
2013-07-04 15:02:00,106.0,61.7,29.59,West,260,8.0,14.0,24,0.00,,,0.00,Wunderground v.1.15,2013-07-04 22:02:00,
2013-07-04 15:07:00,106.7,59.9,29.59,SW,219,7.0,16.0,22,0.00,,,0.00,Wunderground v.1.15,2013-07-04 22:07:00,
2013-07-04 15:12:00,107.2,61.5,29.59,West,259,10.0,14.0,23,0.00,,,0.00,Wunderground v.1.15,2013-07-04 22:12:00,
2013-07-04 15:17:00,107.1,60.2,29.59,WSW,254,13.0,15.0,22,0.00,,,0.00,Wunderground v.1.15,2013-07-04 22:17:00,
2013-07-04 15:22:00,106.9,60.0,29.58,WSW,256,10.0,14.0,22,0.00,,,0.00,Wunderground v.1.15,2013-07-04 22:22:00,
2013-07-04 15:27:00,106.8,60.0,29.58,WSW,252,11.0,14.0,22,0.00,,,0.00,Wunderground v.1.15,2013-07-04 22:27:00,
2013-07-04 15:32:00,107.0,58.8,29.57,West,277,8.0,16.0,21,0.00,,,0.00,Wunderground v.1.15,2013-07-04 22:32:00,
2013-07-04 15:37:00,107.4,60.5,29.57,WSW,258,11.0,17.0,22,0.00,,,0.00,Wunderground v.1.15,2013-07-04 22:37:00,
2013-07-04 15:42:00,107.5,61.8,29.57,West,274,11.0,16.0,23,0.00,,,0.00,Wunderground v.1.15,2013-07-04 22:42:00,
2013-07-04 15:48:00,107.6,61.9,29.57,WSW,258,13.0,16.0,23,0.00,,,0.00,Wunderground v.1.15,2013-07-04 22:48:00,
2013-07-04 15:53:00,107.6,60.6,29.56,WSW,257,9.0,18.0,22,0.00,,,0.00,Wunderground v.1.15,2013-07-04 22:53:00,
2013-07-04 15:58:00,107.8,60.8,29.56,WSW,255,11.0,18.0,22,0.00,,,0.00,Wunderground v.1.15,2013-07-04 22:58:00,
2013-07-04 16:03:00,107.7,60.7,29.56,West,271,11.0,16.0,22,0.00,,,0.00,Wunderground v.1.15,2013-07-04 23:03:00,
2013-07-04 16:08:00,107.7,60.7,29.56,West,261,8.0,17.0,22,0.00,,,0.00,Wunderground v.1.15,2013-07-04 23:08:00,
2013-07-04 16:13:00,108.0,62.2,29.56,West,266,10.0,15.0,23,0.00,,,0.00,Wunderground v.1.15,2013-07-04 23:13:00,
2013-07-04 16:18:00,107.9,60.9,29.55,SSW,211,7.0,17.0,22,0.00,,,0.00,Wunderground v.1.15,2013-07-04 23:18:00,
2013-07-04 16:23:00,107.9,59.6,29.55,WSW,255,11.0,15.0,21,0.00,,,0.00,Wunderground v.1.15,2013-07-04 23:23:00,
2013-07-04 16:28:00,108.0,59.6,29.55,WSW,245,10.0,19.0,21,0.00,,,0.00,Wunderground v.1.15,2013-07-04 23:28:00,
2013-07-04 16:33:00,108.2,58.4,29.55,SW,224,9.0,16.0,20,0.00,,,0.00,Wunderground v.1.15,2013-07-04 23:33:00,
2013-07-04 16:38:00,108.1,59.7,29.54,SW,229,10.0,17.0,21,0.00,,,0.00,Wunderground v.1.15,2013-07-04 23:38:00,
2013-07-04 16:43:00,108.3,59.9,29.54,West,260,8.0,17.0,21,0.00,,,0.00,Wunderground v.1.15,2013-07-04 23:43:00,
2013-07-04 16:48:00,108.4,60.0,29.54,West,262,11.0,18.0,21,0.00,,,0.00,Wunderground v.1.15,2013-07-04 23:48:00,
2013-07-04 16:53:00,108.5,58.7,29.54,WSW,246,8.0,17.0,20,0.00,,,0.00,Wunderground v.1.15,2013-07-04 23:53:00,
2013-07-04 16:58:00,108.8,58.9,29.54,SW,233,5.0,17.0,20,0.00,,,0.00,Wunderground v.1.15,2013-07-04 23:58:00,
2013-07-04 17:03:00,109.1,59.2,29.53,WSW,238,7.0,15.0,20,0.00,,,0.00,Wunderground v.1.15,2013-07-05 00:03:00,
2013-07-04 17:08:00,108.8,57.5,29.53,SW,219,6.0,15.0,19,0.00,,,0.00,Wunderground v.1.15,2013-07-05 00:08:00,
2013-07-04 17:13:00,109.1,59.2,29.53,WSW,243,6.0,13.0,20,0.00,,,0.00,Wunderground v.1.15,2013-07-05 00:13:00,
2013-07-04 17:18:00,109.4,56.5,29.53,West,277,1.0,13.0,18,0.00,,,0.00,Wunderground v.1.15,2013-07-05 00:18:00,
2013-07-04 17:23:00,109.8,58.3,29.53,WSW,238,8.0,12.0,19,0.00,,,0.00,Wunderground v.1.15,2013-07-05 00:23:00,
2013-07-04 17:28:00,109.8,58.3,29.53,SW,218,6.0,13.0,19,0.00,,,0.00,Wunderground v.1.15,2013-07-05 00:28:00,
2013-07-04 17:33:00,109.6,58.1,29.53,SW,215,8.0,9.0,19,0.00,,,0.00,Wunderground v.1.15,2013-07-05 00:33:00,
2013-07-04 17:39:00,109.4,56.5,29.52,SSE,155,4.0,12.0,18,0.00,,,0.00,Wunderground v.1.15,2013-07-05 00:39:00,
2013-07-04 17:43:00,109.5,56.6,29.52,SE,141,2.0,9.0,18,0.00,,,0.00,Wunderground v.1.15,2013-07-05 00:43:00,
2013-07-04 17:48:00,109.7,56.7,29.52,South,170,2.0,12.0,18,0.00,,,0.00,Wunderground v.1.15,2013-07-05 00:48:00,
2013-07-04 17:53:00,109.6,56.6,29.52,SW,231,2.0,11.0,18,0.00,,,0.00,Wunderground v.1.15,2013-07-05 00:53:00,
2013-07-04 17:59:00,109.4,58.0,29.52,West,266,4.0,14.0,19,0.00,,,0.00,Wunderground v.1.15,2013-07-05 00:59:00,
2013-07-04 18:04:00,108.9,59.0,29.52,WSW,243,1.0,12.0,20,0.00,,,0.00,Wunderground v.1.15,2013-07-05 01:04:00,
2013-07-04 18:09:00,108.5,58.7,29.52,SW,228,4.0,13.0,20,0.00,,,0.00,Wunderground v.1.15,2013-07-05 01:09:00,
2013-07-04 18:14:00,108.4,58.6,29.52,WSW,246,6.0,13.0,20,0.00,,,0.00,Wunderground v.1.15,2013-07-05 01:14:00,
2013-07-04 18:19:00,108.4,58.6,29.52,WSW,243,2.0,13.0,20,0.00,,,0.00,Wunderground v.1.15,2013-07-05 01:19:00,
2013-07-04 18:24:00,108.3,57.1,29.52,WSW,242,3.0,8.0,19,0.00,,,0.00,Wunderground v.1.15,2013-07-05 01:24:00,
2013-07-04 18:29:00,108.5,55.8,29.52,South,176,5.0,8.0,18,0.00,,,0.00,Wunderground v.1.15,2013-07-05 01:29:00,
2013-07-04 18:34:00,108.5,58.7,29.52,ENE,71,1.0,10.0,20,0.00,,,0.00,Wunderground v.1.15,2013-07-05 01:34:00,
2013-07-04 18:39:00,108.2,58.4,29.52,ESE,108,2.0,10.0,20,0.00,,,0.00,Wunderground v.1.15,2013-07-05 01:39:00,
2013-07-04 18:44:00,108.3,58.5,29.53,SSW,212,3.0,4.0,20,0.00,,,0.00,Wunderground v.1.15,2013-07-05 01:44:00,
2013-07-04 18:49:00,108.1,58.4,29.53,WNW,298,2.0,8.0,20,0.00,,,0.00,Wunderground v.1.15,2013-07-05 01:49:00,
2013-07-04 18:54:00,107.8,58.1,29.53,WSW,252,2.0,11.0,20,0.00,,,0.00,Wunderground v.1.15,2013-07-05 01:54:00,
2013-07-04 18:59:00,107.4,59.1,29.53,SW,222,2.0,11.0,21,0.00,,,0.00,Wunderground v.1.15,2013-07-05 01:59:00,
2013-07-04 19:04:00,107.1,58.9,29.53,WSW,255,0.0,6.0,21,0.00,,,0.00,Wunderground v.1.15,2013-07-05 02:04:00,
2013-07-04 19:09:00,106.8,60.0,29.53,SE,146,2.0,6.0,22,0.00,,,0.00,Wunderground v.1.15,2013-07-05 02:09:00,
2013-07-04 19:14:00,106.5,59.7,29.53,SSE,163,2.0,4.0,22,0.00,,,0.00,Wunderground v.1.15,2013-07-05 02:14:00,
2013-07-04 19:19:00,106.2,60.7,29.53,WSW,245,0.0,4.0,23,0.00,,,0.00,Wunderground v.1.15,2013-07-05 02:19:00,
2013-07-04 19:24:00,105.7,60.3,29.53,NW,304,2.0,3.0,23,0.00,,,0.00,Wunderground v.1.15,2013-07-05 02:24:00,
2013-07-04 19:29:00,105.1,59.8,29.53,NW,308,2.0,3.0,23,0.00,,,0.00,Wunderground v.1.15,2013-07-05 02:29:00,
2013-07-04 19:34:00,104.6,60.6,29.54,WNW,295,1.0,3.0,24,0.00,,,0.00,Wunderground v.1.15,2013-07-05 02:34:00,
2013-07-04 19:39:00,104.2,60.2,29.54,North,360,1.0,5.0,24,0.00,,,0.00,Wunderground v.1.15,2013-07-05 02:39:00,
2013-07-04 19:44:00,103.8,59.9,29.54,NW,323,2.0,3.0,24,0.00,,,0.00,Wunderground v.1.15,2013-07-05 02:44:00,
2013-07-04 19:49:00,103.5,60.8,29.55,WSW,240,2.0,6.0,25,0.00,,,0.00,Wunderground v.1.15,2013-07-05 02:49:00,
2013-07-04 19:54:00,103.1,60.5,29.55,SSW,213,2.0,4.0,25,0.00,,,0.00,Wunderground v.1.15,2013-07-05 02:54:00,
2013-07-04 20:00:00,102.7,61.2,29.55,NW,316,5.0,7.0,26,0.00,,,0.00,Wunderground v.1.15,2013-07-05 03:00:00,
2013-07-04 20:05:00,102.2,60.8,29.55,North,356,1.0,5.0,26,0.00,,,0.00,Wunderground v.1.15,2013-07-05 03:05:00,
2013-07-04 20:10:00,101.9,60.6,29.55,WNW,295,0.0,5.0,26,0.00,,,0.00,Wunderground v.1.15,2013-07-05 03:10:00,
2013-07-04 20:14:00,101.5,61.3,29.55,North,11,1.0,4.0,27,0.00,,,0.00,Wunderground v.1.15,2013-07-05 03:14:00,
2013-07-04 20:20:00,101.2,61.0,29.55,NW,311,1.0,5.0,27,0.00,,,0.00,Wunderground v.1.15,2013-07-05 03:20:00,
2013-07-04 20:25:00,101.0,60.9,29.55,NNW,348,1.0,3.0,27,0.00,,,0.00,Wunderground v.1.15,2013-07-05 03:25:00,
2013-07-04 20:30:00,100.7,60.6,29.56,NW,309,1.0,6.0,27,0.00,,,0.00,Wunderground v.1.15,2013-07-05 03:30:00,
2013-07-04 20:35:00,100.4,60.4,29.56,WSW,257,1.0,4.0,27,0.00,,,0.00,Wunderground v.1.15,2013-07-05 03:35:00,
2013-07-04 20:40:00,100.3,60.3,29.56,North,349,3.0,3.0,27,0.00,,,0.00,Wunderground v.1.15,2013-07-05 03:40:00,
2013-07-04 20:45:00,100.0,61.0,29.57,ESE,107,1.0,4.0,28,0.00,,,0.00,Wunderground v.1.15,2013-07-05 03:45:00,
2013-07-04 20:50:00,99.7,60.8,29.57,ENE,72,1.0,2.0,28,0.00,,,0.00,Wunderground v.1.15,2013-07-05 03:50:00,
2013-07-04 20:55:00,99.4,60.5,29.57,NW,309,1.0,2.0,28,0.00,,,0.00,Wunderground v.1.15,2013-07-05 03:55:00,
2013-07-04 21:00:00,99.2,60.4,29.58,ENE,71,1.0,1.0,28,0.00,,,0.00,Wunderground v.1.15,2013-07-05 04:00:00,
2013-07-04 21:01:00,99.1,60.3,29.58,ENE,77,0.0,1.0,28,0.00,,,0.00,Wunderground v.1.15,2013-07-05 04:01:00,
2013-07-04 21:02:00,99.1,60.3,29.58,North,4,1.0,2.0,28,0.00,,,0.00,Wunderground v.1.15,2013-07-05 04:02:00,
2013-07-04 21:07:00,98.8,61.0,29.58,NNW,344,1.0,4.0,29,0.00,,,0.00,Wunderground v.1.15,2013-07-05 04:07:00,
2013-07-04 21:12:00,98.6,59.9,29.58,South,169,2.0,4.0,28,0.00,,,0.00,Wunderground v.1.15,2013-07-05 04:12:00,
2013-07-04 21:17:00,98.4,59.7,29.58,WNW,290,0.0,6.0,28,0.00,,,0.00,Wunderground v.1.15,2013-07-05 04:17:00,
2013-07-04 21:22:00,98.1,60.4,29.59,WSW,256,2.0,2.0,29,0.00,,,0.00,Wunderground v.1.15,2013-07-05 04:22:00,
2013-07-04 21:27:00,97.8,60.2,29.59,NE,54,2.0,3.0,29,0.00,,,0.00,Wunderground v.1.15,2013-07-05 04:27:00,
2013-07-04 21:32:00,97.6,60.0,29.59,WSW,252,0.0,2.0,29,0.00,,,0.00,Wunderground v.1.15,2013-07-05 04:32:00,
2013-07-04 21:37:00,97.5,59.9,29.59,ENE,60,1.0,4.0,29,0.00,,,0.00,Wunderground v.1.15,2013-07-05 04:37:00,
2013-07-04 21:42:00,97.2,59.6,29.59,North,11,1.0,2.0,29,0.00,,,0.00,Wunderground v.1.15,2013-07-05 04:42:00,
2013-07-04 21:47:00,97.0,59.5,29.59,ESE,114,1.0,2.0,29,0.00,,,0.00,Wunderground v.1.15,2013-07-05 04:47:00,
2013-07-04 21:52:00,96.9,59.4,29.60,NW,323,1.0,3.0,29,0.00,,,0.00,Wunderground v.1.15,2013-07-05 04:52:00,
2013-07-04 21:57:00,96.7,59.2,29.60,NNW,331,0.0,5.0,29,0.00,,,0.00,Wunderground v.1.15,2013-07-05 04:57:00,
2013-07-04 22:02:00,96.4,59.0,29.60,NNW,345,0.0,1.0,29,0.00,,,0.00,Wunderground v.1.15,2013-07-05 05:02:00,
2013-07-04 22:08:00,96.2,58.8,29.60,NNW,344,0.0,1.0,29,0.00,,,0.00,Wunderground v.1.15,2013-07-05 05:08:00,
2013-07-04 22:13:00,96.0,58.6,29.60,North,360,0.0,1.0,29,0.00,,,0.00,Wunderground v.1.15,2013-07-05 05:13:00,
2013-07-04 22:17:00,95.7,57.4,29.60,NE,37,0.0,2.0,28,0.00,,,0.00,Wunderground v.1.15,2013-07-05 05:17:00,
2013-07-04 22:22:00,95.5,56.2,29.60,NW,307,0.0,5.0,27,0.00,,,0.00,Wunderground v.1.15,2013-07-05 05:22:00,
2013-07-04 22:27:00,95.5,56.2,29.60,North,355,1.0,5.0,27,0.00,,,0.00,Wunderground v.1.15,2013-07-05 05:27:00,
2013-07-04 22:33:00,95.4,56.1,29.60,SW,214,0.0,1.0,27,0.00,,,0.00,Wunderground v.1.15,2013-07-05 05:33:00,
2013-07-04 22:38:00,95.1,56.9,29.60,NW,305,0.0,1.0,28,0.00,,,0.00,Wunderground v.1.15,2013-07-05 05:38:00,
2013-07-04 22:43:00,94.9,56.7,29.60,ESE,115,0.0,1.0,28,0.00,,,0.00,Wunderground v.1.15,2013-07-05 05:43:00,
2013-07-04 22:48:00,94.4,60.0,29.60,SW,228,2.0,3.0,32,0.00,,,0.00,Wunderground v.1.15,2013-07-05 05:48:00,
2013-07-04 22:53:00,93.0,60.5,29.60,West,259,0.0,1.0,34,0.00,,,0.00,Wunderground v.1.15,2013-07-05 05:53:00,
2013-07-04 22:58:00,92.6,59.3,29.61,WNW,303,0.0,1.0,33,0.00,,,0.00,Wunderground v.1.15,2013-07-05 05:58:00,
2013-07-04 23:03:00,92.4,61.6,29.61,WSW,257,1.0,3.0,36,0.00,,,0.00,Wunderground v.1.15,2013-07-05 06:03:00,
2013-07-04 23:08:00,91.0,61.9,29.61,WSW,253,3.0,3.0,38,0.00,,,0.00,Wunderground v.1.15,2013-07-05 06:08:00,
2013-07-04 23:13:00,89.6,62.1,29.61,WSW,248,1.0,3.0,40,0.00,,,0.00,Wunderground v.1.15,2013-07-05 06:13:00,
2013-07-04 23:18:00,88.9,62.2,29.61,West,262,1.0,3.0,41,0.00,,,0.00,Wunderground v.1.15,2013-07-05 06:18:00,
2013-07-04 23:23:00,88.3,63.0,29.61,WSW,253,0.0,5.0,43,0.00,,,0.00,Wunderground v.1.15,2013-07-05 06:23:00,
2013-07-04 23:28:00,87.5,62.9,29.61,SW,232,2.0,5.0,44,0.00,,,0.00,Wunderground v.1.15,2013-07-05 06:28:00,
2013-07-04 23:33:00,86.9,63.0,29.61,WSW,255,0.0,3.0,45,0.00,,,0.00,Wunderground v.1.15,2013-07-05 06:33:00,
2013-07-04 23:38:00,86.3,63.7,29.61,WSW,253,2.0,4.0,47,0.00,,,0.00,Wunderground v.1.15,2013-07-05 06:38:00,
2013-07-04 23:43:00,85.8,63.2,29.61,SW,219,3.0,5.0,47,0.00,,,0.00,Wunderground v.1.15,2013-07-05 06:43:00,
2013-07-04 23:48:00,85.5,63.6,29.62,West,263,4.0,7.0,48,0.00,,,0.00,Wunderground v.1.15,2013-07-05 06:48:00,
2013-07-04 23:53:00,85.1,63.8,29.62,WSW,257,4.0,6.0,49,0.00,,,0.00,Wunderground v.1.15,2013-07-05 06:53:00,
2013-07-04 23:58:00,84.9,63.6,29.62,WSW,256,2.0,6.0,49,0.00,,,0.00,Wunderground v.1.15,2013-07-05 06:58:00,